Regional Weather Roundup
Issued by NWS New Orleans/Baton Rouge, LA

Home | Current Version | Previous Version | Text Only | Print | Product List | Glossary On
Versions: 1 2 3 4 5 6 7 8 9 10 11 12 13 14 15 16 17 18 19 20 21 22 23 24 25 26 27 28 29 30 31 32 33 34 35 36 37 38 39 40 41 42 43 44 45 46 47 48 49 50
728
ASUS44 KLIX 261601
RWRLIX
NEW ORLEANS REGIONAL WEATHER ROUNDUP
NATIONAL WEATHER SERVICE NEW ORLEANS LA
1000 AM CST WED NOV 26 2014

NOTE: "FAIR" INDICATES FEW OR NO CLOUDS BELOW 12,000 FEET WITH NO
      SIGNIFICANT WEATHER AND/OR OBSTRUCTIONS TO VISIBILITY.
      SKY/WX - SKY CONDITION AND SIGNIFICANT WEATHER.
      TMP - AIR TEMPERATURE.     DP    - DEWPOINT TEMPERATURE.
      RH  - RELATIVE HUMIDITY.   PRES  - PRESSURE.
      HI  - HEAT INDEX.          WCI   - WIND CHILL INDEX.

*  THESE STATIONS ARE NOT NWS OR FAA STATIONS AND ARE NOT UNDER
   NWS QUALITY CONTROL.

LAZ038-040-048-061>063-065>067-069-261700-
SOUTHEAST LOUISIANA

CITY           SKY/WX    TMP DP  RH WIND       PRES   REMARKS
N.O. AUDUBON     N/A     60  38  43 MISG        N/A
N.O. INTL ARPT MOSUNNY   56  35  45 S7        30.29S
N.O. LAKEFRONT SUNNY     54  33  45 CALM      30.30S
N.O. DOWNTOWN*   N/A     55  34  44 CALM      30.29F
SLIDELL        SUNNY     54  31  41 CALM      30.29S
BATON ROUGE    SUNNY     58  38  47 S10       30.25F
BOOTHVILLE     SUNNY     56  36  47 CALM      30.31S
BELLE CHASSE   SUNNY     56  31  38 VRB3      30.29S
BOGALUSA*        N/A     54  33  44 CALM      30.29F
NEW ROADS*     NOT AVBL
GONZALES*      NOT AVBL
HAMMOND*       NOT AVBL
HOUMA*         NOT AVBL
PORT FOURCHON* SUNNY     57  32  38 CALM      30.33S

$$

MSZ070-080>082-261700-
SOUTHERN MISSISSIPPI

CITY           SKY/WX    TMP DP  RH WIND       PRES   REMARKS
MCCOMB         SUNNY     54  33  45 S9        30.24F
GULFPORT       SUNNY     52  23  32 SE5       30.28S
BILOXI         SUNNY     51  23  32 VRB3      30.28S
PASCAGOULA     SUNNY     54  25  32 NE3       30.28S
STENNIS ARPT*  SUNNY     52  28  40 CALM      30.29F

$$

COASTAL OBSERVATIONS
LAKE AND NEARSHORE STATIONS

STATION/POSITION TIME  TEMP    WIND        PRES    WAVE
                       AIR SEA DIR/SP/G            HT/PER
                 (UTC) (F)     (DEG/KT/KT) (MB)    (FT/S)
PASCAGOULA       1500   52     290/  3/  5 1024.9
WAVELAND YACHT   1500   47     150/  5/  5 1024.8
GRAND ISLE       1500   53 59  300/  2/  3 1026.4
SOUTHWEST PASS   1500   55                 1026.4
NEW CANAL        1500   52 53  270/  2/  4 1026.2
SHELL BEACH      1500   51 52   10/  2/  3 1025.6

OFFSHORE STATIONS

STATION/POSITION TIME  TEMP    WIND        PRES    WAVE
                       AIR SEA DIR/SP/G            HT/PER
                 (UTC) (F)     (DEG/KT/KT) (MB)    (FT/S)
64 S DAUPHIN ISL 1504   58 70  330/ 12/ 16 1025.8    3/ 5

$$




USA.gov is the U.S. government's official web portal to all federal, state and local government web resources and services.